Date,TemperatureHighF,TemperatureAvgF,TemperatureLowF,DewpointHighF,DewpointAvgF,DewpointLowF,HumidityHigh,HumidityAvg,HumidityLow,PressureMaxIn,PressureMinIn,WindSpeedMaxMPH,WindSpeedAvgMPH,GustSpeedMaxMPH,PrecipitationSumIn
2013-1-1,35.3,29.4,27.5,32.9,26.1,23.8,93,87,83,29.12,28.89,10,3,10,0.00
2013-1-2,41.4,32.4,27.2,29.4,25.3,22.1,87,76,55,29.16,29.03,12,2,12,0.01
2013-1-3,41.8,30.4,23.6,28.5,22.6,17.9,88,74,51,29.29,29.15,9,1,9,0.00
2013-1-4,46.4,35.7,23.0,30.2,25.3,17.6,84,67,49,29.29,29.12,12,3,12,0.00
2013-1-5,49.7,40.5,32.4,35.2,31.1,23.6,87,70,52,29.15,28.99,16,4,16,0.00
2013-1-6,50.2,37.4,29.2,27.6,23.2,19.4,78,59,33,29.27,29.15,10,1,10,0.00
2013-1-7,51.1,39.8,29.9,29.5,24.4,18.5,74,55,38,29.16,28.91,13,2,13,0.00
2013-1-8,56.2,44.4,34.9,43.7,36.4,28.5,90,74,55,29.00,28.86,14,2,14,0.01
2013-1-9,48.2,46.5,45.2,46.6,44.4,42.6,95,92,85,29.14,28.93,13,4,13,0.18
2013-1-10,55.6,50.3,47.5,52.8,48.0,45.1,95,92,89,28.93,28.67,11,4,11,0.18
2013-1-11,68.0,56.0,45.9,51.5,46.5,39.6,91,72,49,28.70,28.52,21,7,21,0.00
2013-1-12,56.5,36.3,25.9,39.6,24.7,14.5,78,64,33,28.90,28.68,17,7,17,0.00
2013-1-13,30.6,24.6,20.3,15.8,12.9,10.5,71,61,47,29.19,28.86,14,5,14,0.00
2013-1-14,36.4,26.6,19.4,15.6,11.7,9.5,69,54,36,29.25,29.10,13,4,13,0.00
2013-1-15,34.6,27.2,20.7,19.8,16.2,12.0,82,64,46,29.12,29.03,10,2,10,0.00
2013-1-16,47.2,31.7,17.3,25.2,17.7,10.4,76,59,33,29.07,28.95,11,2,11,0.00
2013-1-17,52.7,40.1,31.7,32.2,28.5,23.4,80,65,44,29.33,29.06,13,3,13,0.00
2013-1-18,58.9,46.0,32.0,34.4,30.6,25.4,77,57,36,29.30,29.01,17,5,17,0.00
2013-1-19,63.9,49.0,36.2,39.0,34.2,28.6,77,58,39,29.05,28.93,15,4,15,0.00
2013-1-20,64.4,45.8,29.9,39.0,31.7,22.2,82,60,36,29.09,28.92,11,2,11,0.00
2013-1-21,43.0,32.7,23.9,22.3,16.0,12.4,64,51,33,29.24,29.08,14,4,14,0.00
2013-1-22,59.4,41.2,25.9,35.0,25.0,15.7,72,54,34,29.11,28.98,9,2,13,0.00
2013-1-23,69.8,51.2,34.4,50.0,42.2,30.1,89,73,48,29.06,28.93,9,1,9,0.00
2013-1-24,50.0,38.9,30.6,44.4,31.1,24.6,85,74,65,29.07,28.94,13,4,13,0.00
2013-1-25,47.9,35.9,27.2,33.3,28.9,23.4,90,77,54,29.07,28.94,10,2,10,0.00
2013-1-26,47.2,39.7,28.6,43.0,35.9,24.1,93,86,78,29.07,28.88,10,2,10,0.00
2013-1-27,68.0,56.0,42.8,57.5,51.2,41.0,95,85,67,28.90,28.67,18,6,18,0.00
2013-1-28,72.9,66.6,60.3,62.6,59.7,55.3,91,79,67,28.76,28.57,18,8,18,0.00
2013-1-29,67.7,56.5,39.6,61.9,52.1,34.0,92,85,65,28.58,28.30,21,5,21,0.41
2013-1-30,45.2,38.2,33.1,34.0,26.6,19.3,83,64,38,28.88,28.51,15,5,15,0.00
2013-1-31,57.4,39.6,25.9,30.9,23.6,14.3,71,54,31,29.19,28.84,17,4,17,0.00
2013-2-1,50.0,31.4,19.4,27.2,17.2,10.4,76,57,36,29.21,28.94,11,2,11,0.00
2013-2-2,57.2,41.7,28.3,36.9,29.7,22.7,86,64,42,29.11,28.95,10,1,10,0.00
2013-2-3,60.1,50.8,33.1,33.4,30.9,26.3,76,48,33,29.13,28.71,12,3,12,0.00
2013-2-4,64.6,54.8,38.5,43.1,33.3,26.8,66,45,28,28.75,28.63,12,3,12,0.00
2013-2-5,66.4,49.1,30.8,51.4,37.3,24.6,90,66,32,28.82,28.72,7,1,7,0.00
2013-2-6,58.1,51.3,44.5,56.5,49.4,41.1,95,93,87,28.81,28.61,11,2,11,0.01
2013-2-7,64.3,52.6,43.0,59.2,48.3,34.3,96,85,71,28.94,28.56,21,4,21,0.05
2013-2-8,55.8,43.0,31.1,35.1,30.9,25.5,86,65,33,29.05,28.85,7,1,7,0.01
2013-2-9,47.9,42.3,39.4,46.2,38.0,32.3,95,85,75,28.86,28.42,12,4,12,0.01
2013-2-10,60.7,50.2,41.4,49.4,34.0,25.8,95,57,32,28.78,28.39,14,5,14,0.02
2013-2-11,52.4,43.0,34.0,27.2,24.7,22.1,65,50,31,28.94,28.78,12,3,12,0.00
2013-2-12,42.1,35.9,32.8,32.8,30.5,26.0,94,82,53,28.80,28.50,10,3,10,0.47
2013-2-13,53.3,38.8,31.3,41.1,31.9,25.4,95,79,39,28.79,28.55,10,3,10,0.02
2013-2-14,59.8,41.7,31.7,35.2,30.2,25.9,79,66,39,28.80,28.58,6,1,6,0.00
2013-2-15,34.9,33.7,31.7,28.6,24.9,20.9,79,70,64,29.21,29.17,6,1,6,0.00
2013-2-16,52.9,39.4,26.5,30.1,26.3,17.5,92,63,37,29.22,28.90,14,3,14,0.00
2013-2-17,70.2,54.3,37.3,35.6,30.1,26.2,67,43,21,28.90,28.58,22,6,22,0.00
2013-2-18,57.6,51.1,33.8,49.0,35.7,22.1,80,57,38,29.00,28.47,25,7,25,0.00
2013-2-19,54.4,41.8,27.4,30.4,24.0,20.3,81,52,29,29.17,29.00,8,1,8,0.00
2013-2-20,43.6,36.1,32.9,33.9,31.7,24.7,92,85,48,29.01,28.69,12,3,12,0.03
2013-2-21,40.5,33.4,23.9,38.2,30.7,18.3,94,90,77,28.84,28.51,13,3,13,0.01
2013-2-22,36.2,27.7,20.3,23.0,19.1,15.1,82,70,55,28.99,28.83,10,3,10,0.01
2013-2-23,48.1,33.7,21.1,31.1,24.2,16.3,84,69,47,28.95,28.72,10,1,10,0.00
2013-2-24,63.4,47.8,32.9,41.6,34.4,25.5,76,61,40,28.73,28.53,16,3,16,0.00
2013-2-25,49.3,41.8,37.8,38.5,37.1,35.2,93,84,60,28.63,28.39,16,6,16,0.72
2013-2-26,45.0,39.3,31.5,32.8,29.8,26.1,89,69,57,28.77,28.60,8,2,8,0.00
2013-2-27,43.6,35.2,27.5,30.0,26.5,23.3,85,72,52,29.05,28.76,10,4,10,0.00
2013-2-28,46.8,36.1,27.4,31.6,27.2,23.4,87,71,50,29.10,29.04,13,3,13,0.00
2013-3-1,43.4,33.8,24.5,31.4,26.5,20.9,88,75,59,29.17,29.04,14,3,14,0.00
2013-3-2,50.2,36.7,22.7,31.5,25.6,19.2,89,66,45,29.23,29.00,9,2,9,0.00
2013-3-3,69.8,52.9,35.6,37.2,32.2,25.7,69,48,29,29.00,28.45,20,6,20,0.00
2013-3-4,66.4,56.6,43.7,44.8,37.3,30.4,76,50,34,28.84,28.37,20,7,20,0.00
2013-3-5,48.1,40.1,32.0,35.4,23.0,15.7,79,52,36,29.22,28.89,18,5,18,0.00
2013-3-6,53.5,41.0,26.6,25.8,21.8,18.2,74,49,30,29.27,29.00,7,1,7,0.00
2013-3-7,70.7,54.5,37.8,31.7,26.3,21.1,53,36,21,29.01,28.86,22,5,22,0.00
2013-3-8,62.3,55.5,52.7,53.6,44.9,31.3,92,69,40,28.94,28.75,13,5,13,0.00
2013-3-9,61.9,57.1,52.9,58.7,54.1,43.1,93,90,66,28.76,28.48,14,4,14,0.21
2013-3-10,56.5,40.5,35.3,44.8,32.3,27.6,89,73,51,28.91,28.51,13,5,13,0.00
2013-3-11,55.1,41.8,26.6,30.3,25.1,18.0,84,54,33,28.91,28.81,9,2,9,0.00
2013-3-12,58.0,46.7,34.2,38.8,30.1,23.2,70,53,38,29.18,28.86,10,2,10,0.00
2013-3-13,64.3,49.0,33.1,34.2,30.1,24.0,79,51,31,29.28,29.12,12,2,12,0.00
2013-3-14,77.4,58.3,45.5,45.4,37.7,31.6,58,48,30,29.13,28.95,8,4,8,0.00
2013-3-15,81.9,71.8,55.8,47.2,45.3,42.4,64,40,27,28.94,28.62,13,7,13,0.00
2013-3-16,79.7,66.9,50.2,50.7,46.0,38.4,64,48,35,28.65,28.55,16,6,16,0.00
2013-3-17,49.3,42.8,40.5,38.3,36.3,33.9,87,78,65,28.69,28.51,9,3,9,0.00
2013-3-18,59.6,47.7,39.2,39.6,33.5,25.4,93,63,28,28.87,28.50,9,4,9,0.00
2013-3-19,61.2,50.2,36.7,35.7,29.6,23.9,72,47,26,29.05,28.83,10,2,10,0.00
2013-3-20,58.7,46.7,32.8,32.8,29.6,24.7,76,53,33,29.19,28.81,7,2,7,0.00
2013-3-21,56.9,48.3,41.8,41.1,35.0,29.5,72,60,51,28.81,28.40,9,4,9,0.02
2013-3-22,45.0,41.5,37.6,38.4,36.1,33.8,90,81,71,28.73,28.50,11,5,11,0.02
2013-3-23,43.0,40.5,35.5,39.1,37.5,32.5,93,89,82,28.75,28.55,8,4,8,0.00
2013-3-24,42.3,35.9,29.5,31.1,22.3,17.1,88,59,39,29.04,28.73,18,5,18,0.01
2013-3-25,43.2,35.0,27.2,21.6,17.4,13.5,73,50,31,29.22,29.04,15,4,15,0.00
2013-3-26,56.0,39.2,19.3,25.0,20.0,12.4,78,49,29,29.28,29.02,10,2,10,0.00
2013-3-27,69.7,54.2,40.7,40.0,31.9,23.0,59,44,32,29.02,28.86,20,6,20,0.00
2013-3-28,74.2,60.0,48.1,53.1,47.0,38.6,79,63,45,28.98,28.85,13,4,13,0.00
2013-3-29,62.1,57.8,55.8,56.7,53.3,52.3,89,85,79,28.94,28.90,10,3,10,0.00
2013-4-3,37.4,36.8,36.4,35.8,35.0,34.2,94,93,93,29.04,28.98,6,2,6,0.18
2013-4-4,52.9,42.9,34.4,40.9,37.1,32.8,95,81,61,29.04,28.96,8,3,8,0.05
2013-4-5,66.2,51.7,34.2,46.9,41.1,31.2,90,69,46,29.04,28.73,11,4,11,0.00
2013-4-6,74.0,63.4,54.4,52.9,49.6,46.1,78,62,44,28.73,28.65,13,5,13,0.00
2013-4-7,71.5,62.2,53.8,60.8,56.2,50.3,92,81,68,28.71,28.52,10,3,10,0.00
2013-4-8,80.6,69.8,61.7,64.1,61.1,57.9,87,75,56,28.54,28.42,16,7,16,0.00
2013-4-9,79.6,64.8,36.4,64.1,56.2,32.0,85,74,58,28.70,28.44,12,6,12,0.00
2013-4-10,38.2,33.8,30.6,34.1,30.5,27.8,92,88,78,28.86,28.68,11,4,11,0.94
2013-4-11,55.4,46.6,31.7,36.7,33.7,27.7,88,62,47,28.81,28.61,8,3,8,0.00
2013-4-12,61.9,49.5,38.2,39.9,36.1,31.2,83,62,42,28.87,28.66,8,3,8,0.00
2013-4-13,74.9,60.6,47.2,49.0,43.3,37.4,75,55,35,28.83,28.56,12,5,12,0.00
2013-4-14,81.2,68.9,58.0,60.4,53.3,46.4,73,59,41,28.56,28.34,15,7,15,0.00
2013-4-15,76.7,65.8,56.5,60.3,46.6,35.2,74,51,41,28.66,28.47,12,5,12,0.00
2013-4-16,56.5,52.2,50.0,48.0,45.8,43.0,87,79,61,28.80,28.61,9,5,9,0.00
2013-4-17,76.3,63.4,48.6,68.1,57.6,45.5,95,82,64,28.73,28.42,12,5,12,0.01
2013-4-18,46.1,42.6,37.1,34.3,31.3,28.6,74,65,56,28.98,28.82,10,4,10,0.00
2013-4-19,63.5,47.1,31.7,35.7,30.1,25.9,80,55,30,29.05,28.89,8,4,8,0.00
2013-4-20,70.7,58.4,47.2,35.7,32.7,29.7,55,40,23,28.94,28.79,13,6,13,0.00
2013-4-21,68.8,60.0,52.0,48.1,41.8,36.1,66,52,38,28.99,28.89,14,5,14,0.00
2013-4-22,77.8,64.5,51.3,56.7,50.7,42.9,74,62,46,28.92,28.61,17,6,17,0.00
2013-4-23,65.9,40.4,34.7,56.6,35.9,27.2,91,84,72,29.08,28.70,12,6,12,0.02
2013-4-24,56.5,43.9,30.2,34.6,30.1,27.2,89,62,36,29.16,29.06,8,3,8,0.00
2013-4-25,71.3,56.6,39.4,41.0,33.9,29.3,69,46,24,29.16,28.96,12,2,12,0.05
2013-4-26,69.7,62.7,54.2,60.0,52.6,41.0,92,70,48,28.99,28.77,14,5,14,0.65
2013-4-27,66.4,57.0,50.9,54.9,51.4,48.3,95,82,65,28.98,28.85,13,3,13,0.00
2013-4-28,82.6,63.9,48.2,59.9,51.1,45.6,92,68,30,28.87,28.66,12,2,12,0.01
2013-4-29,86.9,74.2,62.5,60.0,55.7,48.3,84,56,29,28.70,28.56,18,6,18,0.00
2013-4-30,84.6,72.4,62.6,59.1,56.8,53.9,77,60,39,28.64,28.55,16,5,16,0.00
2013-5-1,82.4,67.6,44.3,65.4,58.6,39.0,89,74,52,29.00,28.61,15,4,15,0.00
2013-5-2,46.3,40.7,38.3,39.2,35.0,30.4,91,81,55,29.22,28.99,21,8,21,0.01
2013-5-3,61.6,46.9,32.8,37.6,31.0,25.3,86,58,28,29.20,28.85,13,3,13,0.00
2013-5-4,59.2,46.6,36.5,40.3,33.8,25.7,80,63,30,28.91,28.80,14,3,14,0.00
2013-5-5,62.8,55.8,44.8,49.2,45.4,37.9,82,68,58,29.01,28.91,12,3,12,0.00
2013-5-6,72.7,59.2,43.2,53.7,47.7,39.2,88,68,45,28.98,28.86,7,1,7,0.00
2013-5-7,81.0,68.5,56.2,55.3,51.7,49.5,81,57,36,28.92,28.76,9,2,9,0.00
2013-5-8,85.7,71.7,59.9,62.4,54.5,46.7,92,57,32,28.79,28.63,22,4,22,1.17
2013-5-9,69.7,64.6,58.0,64.4,60.3,53.8,93,86,76,28.81,28.68,11,1,11,0.22
2013-5-10,69.8,63.3,57.1,61.9,56.4,51.8,95,79,58,28.95,28.79,11,2,11,0.00
2013-5-11,78.3,64.9,49.9,58.2,51.2,43.3,89,65,37,29.04,28.94,14,2,14,0.00
2013-5-12,73.1,67.6,65.3,45.2,42.2,39.0,44,40,36,28.96,28.93,6,2,6,0.00
2013-5-13,88.7,73.7,58.1,56.8,48.3,38.6,60,42,28,28.96,28.86,10,6,10,0.00
2013-5-14,88.2,77.0,64.1,60.1,51.6,44.1,54,42,29,28.91,28.75,13,6,13,0.00
2013-5-15,74.2,67.1,60.5,65.5,60.2,53.6,92,80,52,28.79,28.63,11,4,11,0.20
2013-5-16,71.6,64.5,60.1,63.7,60.3,57.8,94,87,73,28.70,28.63,6,2,6,0.06
2013-5-17,73.6,68.1,61.7,70.0,65.6,59.7,94,92,87,28.73,28.66,6,2,6,0.01
2013-5-18,89.5,76.6,64.1,76.3,69.6,59.7,94,80,56,28.71,28.55,12,5,12,0.35
2013-5-19,86.9,75.8,64.6,71.4,67.3,60.4,87,76,59,28.64,28.40,13,6,13,0.04
2013-5-20,85.5,74.2,67.3,72.8,67.2,63.6,88,79,65,28.62,28.46,12,4,12,0.07
2013-5-21,68.2,62.9,56.3,63.6,55.2,50.4,90,76,62,28.86,28.61,9,2,9,0.10
2013-5-22,81.0,68.0,54.7,60.7,56.2,52.1,91,68,47,28.79,28.67,3,1,3,0.01
2013-5-23,77.2,67.1,56.0,65.9,60.2,53.1,92,79,64,28.94,28.75,6,2,6,0.12
2013-5-24,79.6,66.5,59.9,70.6,61.8,57.2,92,85,73,28.99,28.93,6,2,6,0.02
2013-5-27,81.0,79.5,76.5,69.5,68.4,67.6,74,69,66,28.64,28.57,13,9,13,0.00
2013-5-28,79.6,75.7,71.8,68.5,67.4,65.3,84,75,68,28.65,28.54,14,6,14,0.00
2013-5-29,79.4,73.0,66.1,69.5,66.8,60.0,91,81,71,28.63,28.47,12,5,12,0.15
2013-5-30,83.9,76.9,71.3,73.0,67.9,64.5,79,74,68,28.55,28.51,7,5,7,0.00
2013-5-31,88.0,79.2,63.9,75.5,71.0,61.6,93,77,65,28.61,28.37,15,6,15,3.56
2013-6-1,79.2,72.9,65.7,64.0,57.3,54.2,92,60,44,28.88,28.55,6,3,6,0.81
2013-6-2,73.1,64.0,56.5,56.9,52.7,49.5,84,68,47,28.99,28.84,7,2,7,0.00
2013-6-3,79.9,69.8,58.9,63.1,59.3,52.3,85,70,51,28.87,28.66,5,2,5,0.00
2013-6-4,84.1,73.5,63.2,71.6,66.3,60.6,92,79,66,28.84,28.61,8,3,8,0.80
2013-6-5,82.3,72.6,63.2,68.3,65.3,60.8,93,79,54,28.87,28.68,7,2,7,0.62
2013-6-6,75.8,69.0,61.7,64.9,59.5,54.5,88,73,50,28.84,28.77,9,3,9,0.00
2013-6-7,82.4,70.5,55.6,61.0,56.2,51.1,89,63,39,28.88,28.76,4,1,4,0.00
2013-6-8,80.6,72.1,62.6,62.6,59.6,56.3,80,66,53,28.78,28.62,7,3,7,0.00
2013-6-9,87.7,75.0,63.0,66.4,61.9,55.7,90,67,35,28.83,28.63,8,2,8,0.00
2013-6-10,94.9,87.2,69.3,70.4,67.6,62.7,83,54,36,28.79,28.71,14,5,14,0.00
2013-6-11,92.0,82.9,72.4,71.3,66.2,60.0,72,58,40,28.83,28.73,11,5,17,0.00
2013-6-12,93.1,83.0,74.2,72.2,69.0,65.6,78,63,47,28.84,28.73,17,6,17,0.00
2013-6-13,96.3,85.8,76.9,74.6,70.4,67.7,74,61,46,28.87,28.77,9,3,9,0.00
2013-6-14,94.0,85.2,74.7,74.1,70.7,68.1,80,63,46,28.86,28.77,11,3,11,0.00
2013-6-15,83.2,78.5,74.7,75.0,70.5,66.6,87,77,69,28.88,28.76,6,1,6,0.19
2013-6-16,92.3,79.7,71.5,75.4,70.9,67.7,90,76,52,28.87,28.73,6,2,6,0.02
2013-6-17,81.7,74.3,64.4,71.6,66.3,62.5,93,77,60,28.87,28.68,7,2,7,1.75
2013-6-18,85.3,76.5,65.9,68.4,65.6,63.2,92,71,51,28.90,28.79,2,1,2,0.00
2013-6-19,81.5,75.4,67.3,71.4,68.0,63.6,90,78,69,28.90,28.76,7,2,7,0.00
2013-6-20,90.7,81.3,72.2,74.3,71.0,67.5,90,72,54,28.84,28.75,10,5,10,0.00
2013-6-21,90.9,83.6,74.3,74.8,70.4,66.0,77,65,55,28.87,28.78,9,4,9,0.00
2013-6-22,89.6,82.5,74.5,71.9,67.9,63.0,76,62,43,28.84,28.71,11,5,11,0.00
2013-6-23,90.4,82.4,75.4,70.5,68.0,65.8,76,62,49,28.76,28.70,16,6,16,0.00
2013-6-24,88.9,80.4,74.2,72.5,68.2,66.0,77,67,53,28.84,28.72,10,4,10,0.00
2013-6-25,89.5,82.1,76.5,74.8,69.6,66.2,72,66,60,28.75,28.63,15,6,15,0.01
2013-6-26,92.5,84.2,77.0,76.0,70.0,63.8,75,63,57,28.78,28.64,9,4,9,0.00
2013-6-27,99.2,90.3,76.9,76.2,72.0,61.7,77,56,47,28.91,28.71,15,4,15,0.00
2013-6-28,94.5,86.3,74.5,73.3,66.8,60.3,72,54,33,28.86,28.75,8,2,8,0.00
2013-6-29,89.6,81.3,71.6,67.3,63.6,60.1,74,57,40,28.86,28.72,5,1,5,0.00
2013-6-30,83.9,76.0,66.2,59.9,57.0,54.9,69,53,39,28.88,28.77,11,2,11,0.00
2013-7-1,81.9,71.9,58.1,59.2,54.3,50.6,80,56,35,28.98,28.88,8,2,8,0.00
2013-7-2,85.0,72.4,56.0,57.1,53.3,49.5,80,54,32,29.00,28.89,7,1,7,0.00
2013-7-3,87.7,73.7,60.1,61.0,56.0,52.6,78,56,37,28.95,28.81,4,1,4,0.02
2013-7-4,89.3,78.7,68.0,65.1,58.7,53.6,63,51,36,28.89,28.77,10,2,10,0.00
2013-7-5,90.0,78.8,70.6,67.1,62.0,59.0,73,58,36,28.86,28.72,9,3,9,0.00
2013-7-6,92.7,82.2,73.1,68.9,64.4,61.0,66,56,41,28.81,28.73,8,4,8,0.00
2013-7-7,93.4,82.2,72.4,70.6,65.2,61.5,72,57,42,28.87,28.80,8,3,8,0.00
2013-7-8,94.5,83.7,73.3,73.6,68.7,64.1,78,62,47,28.93,28.84,7,2,7,0.00
2013-7-9,98.5,88.6,76.7,71.8,68.6,65.4,73,53,38,28.91,28.81,10,4,10,0.06
2013-7-10,101.5,88.0,77.4,71.9,67.0,61.7,66,51,33,28.88,28.77,10,3,10,0.00
2013-7-11,97.9,86.8,77.4,72.5,69.3,64.5,73,57,40,28.85,28.74,11,2,11,0.00
2013-7-12,96.1,85.9,75.2,72.3,69.2,66.4,77,59,43,28.84,28.78,6,2,6,0.00
2013-7-13,96.8,85.5,75.8,72.5,69.6,67.5,79,60,43,28.87,28.76,6,2,6,0.03
2013-7-14,83.2,70.5,63.7,66.3,63.9,59.5,91,81,56,28.93,28.78,7,2,7,0.00
2013-7-15,76.1,67.6,63.0,67.8,63.6,59.3,93,87,74,29.00,28.89,6,2,6,0.00
2013-7-16,84.6,74.0,68.2,71.1,68.4,65.4,93,83,62,29.09,28.98,7,2,7,0.00
2013-7-17,87.1,76.7,69.1,74.9,70.6,66.7,93,82,61,29.14,29.04,6,1,6,0.00
2013-7-18,90.4,80.3,70.6,76.3,70.0,67.8,92,73,51,29.06,28.89,8,1,8,0.03
2013-7-19,94.0,84.4,71.6,73.4,68.8,66.3,84,61,43,28.92,28.78,8,2,8,0.00
2013-7-20,94.5,82.6,72.5,74.6,70.5,67.8,86,68,48,28.84,28.70,6,3,6,2.01
2013-7-21,94.7,84.7,74.3,74.3,70.8,68.3,82,64,45,28.77,28.67,8,4,8,0.00
2013-7-22,95.6,86.5,76.5,75.4,72.2,68.5,77,63,50,28.78,28.70,9,5,9,0.09
2013-7-23,96.3,87.6,77.2,75.9,73.0,68.7,75,63,50,28.80,28.66,8,4,8,0.00
2013-7-24,88.0,82.0,69.1,73.5,70.8,63.9,86,69,58,28.90,28.69,17,3,17,0.01
2013-7-25,85.9,78.2,70.9,73.1,70.3,66.9,89,77,63,28.95,28.84,5,1,5,0.00
2013-7-26,81.2,74.1,69.5,71.2,69.4,66.9,93,85,69,28.91,28.78,13,3,13,0.06
2013-7-27,87.3,75.7,65.0,72.4,67.5,62.4,93,77,56,28.92,28.81,5,1,5,0.00
2013-7-28,86.2,77.9,68.4,71.5,67.5,64.9,91,71,55,28.87,28.77,7,2,7,0.00
2013-7-29,87.5,80.2,72.4,75.8,71.8,66.4,85,76,66,28.83,28.73,9,3,9,0.00
2013-7-30,92.0,81.4,70.2,75.8,71.9,67.1,90,74,56,28.93,28.76,8,2,8,0.06
2013-7-31,88.9,81.9,74.5,75.3,72.7,70.3,92,75,56,28.96,28.86,6,2,6,0.00
2013-8-1,90.0,81.5,71.6,74.8,71.7,67.2,89,73,59,28.95,28.81,3,1,3,0.00
2013-8-2,98.1,85.6,75.6,75.1,72.1,70.2,86,66,43,28.82,28.68,6,3,6,0.00
2013-8-3,94.3,85.4,77.8,75.1,70.0,65.4,73,61,50,28.89,28.73,8,3,8,0.00
2013-8-4,95.0,84.8,77.0,76.4,72.0,69.1,82,66,52,28.92,28.78,7,2,7,0.00
2013-8-5,98.5,87.0,77.4,75.2,70.9,67.1,71,60,43,28.82,28.67,8,3,8,0.00
2013-8-6,98.3,87.8,77.6,73.9,68.5,64.3,65,53,40,28.72,28.63,10,4,10,0.00
2013-8-7,92.2,88.4,83.9,77.0,74.1,71.0,74,63,53,28.75,28.67,5,2,5,0.00
2013-8-8,88.2,78.6,70.2,76.2,71.8,66.8,89,80,63,28.79,28.68,14,3,14,0.01
2013-8-9,85.5,79.8,70.2,74.7,71.1,67.8,92,76,63,28.92,28.80,6,2,6,0.00
2013-8-10,82.8,74.7,67.9,68.7,67.0,64.7,91,78,60,29.01,28.90,7,2,7,0.00
2013-8-11,90.0,80.7,66.6,72.9,69.9,63.5,91,71,53,28.97,28.86,2,0,2,0.00
2013-8-12,92.0,81.2,73.6,76.3,72.2,68.6,86,75,56,28.91,28.78,8,2,8,0.01
2013-8-13,81.0,74.7,70.9,72.4,69.5,66.7,91,84,75,28.91,28.83,5,2,5,1.18
2013-8-14,84.2,75.2,67.1,68.8,66.2,63.8,93,75,54,28.98,28.87,5,2,5,0.00
2013-8-15,83.0,73.9,67.1,70.8,65.8,63.0,87,76,63,28.95,28.83,5,1,5,0.00
2013-8-16,80.5,72.8,63.0,67.6,64.5,60.3,91,76,60,28.96,28.85,13,2,13,0.28
2013-8-17,82.1,73.6,63.4,66.2,63.6,59.8,88,72,57,29.00,28.89,4,1,4,0.00
2013-8-18,83.2,75.7,64.6,67.3,64.6,60.0,85,69,56,28.99,28.89,3,1,3,0.00
2013-8-19,87.8,75.6,67.3,69.8,64.9,62.0,83,70,52,28.94,28.83,6,2,6,0.00
2013-8-20,90.9,79.4,68.2,70.1,64.8,60.8,79,63,43,28.91,28.83,5,1,5,0.00
2013-8-21,92.2,79.2,68.4,70.6,64.9,60.9,78,63,44,28.95,28.86,5,1,5,0.00
2013-8-22,92.7,80.5,69.1,72.7,67.5,61.4,77,65,48,28.96,28.83,6,1,6,0.00
2013-8-23,96.8,83.9,73.6,74.3,70.4,67.1,80,65,42,28.91,28.81,5,2,5,0.04
2013-8-24,92.7,84.6,73.1,75.4,71.2,67.6,83,65,50,28.96,28.88,4,2,4,0.00
2013-8-25,92.3,82.7,73.8,73.4,69.9,67.4,82,66,49,29.03,28.95,8,2,8,0.00
2013-8-26,91.1,82.2,72.7,72.4,68.5,65.3,78,64,49,29.05,28.94,6,2,6,0.00
2013-8-27,88.2,79.7,70.2,72.7,67.7,62.0,77,67,58,28.97,28.88,5,2,5,0.00
2013-8-28,93.2,80.6,70.7,72.9,68.6,65.3,84,68,48,28.94,28.86,12,2,12,0.00
2013-8-29,97.6,84.2,72.7,72.6,67.0,62.8,72,58,36,28.93,28.84,6,2,6,0.00
2013-8-30,99.2,86.0,74.0,71.1,67.6,64.1,71,56,36,28.87,28.73,7,2,7,0.00
2013-8-31,102.1,88.5,74.3,71.5,66.5,62.4,67,50,32,28.77,28.66,5,2,5,0.00
2013-9-1,92.7,82.8,74.2,72.5,66.6,61.9,73,59,50,28.79,28.67,6,2,6,0.00
2013-9-2,87.8,78.2,71.5,70.2,64.3,59.5,90,65,41,28.91,28.79,5,2,5,0.00
2013-9-3,87.7,71.8,60.1,63.3,59.3,55.0,84,67,40,28.93,28.83,4,0,4,0.00
2013-9-4,91.4,75.9,65.2,71.1,63.0,57.8,79,66,46,28.97,28.89,4,1,4,0.00
2013-9-5,81.2,79.4,77.8,65.6,65.3,65.0,66,62,58,28.96,28.92,1,0,1,0.00
2013-9-6,96.7,82.6,71.6,69.6,65.0,60.5,71,57,38,28.96,28.84,7,2,7,0.00
2013-9-7,97.9,83.4,72.7,69.8,65.4,62.5,70,56,34,28.89,28.78,4,1,4,0.00
2013-9-8,89.3,82.3,78.1,64.6,62.3,60.9,63,51,43,28.82,28.75,4,1,4,0.00
2013-9-9,92.2,81.4,71.6,69.8,62.5,59.3,72,54,38,28.86,28.77,10,3,10,0.00
2013-9-10,90.4,81.1,70.2,68.4,64.2,60.0,76,57,42,28.96,28.82,6,2,6,0.00
2013-9-12,93.6,83.3,71.3,70.9,68.4,64.1,89,63,41,28.96,28.86,11,2,11,0.67
2013-9-13,81.0,75.1,69.5,69.3,66.3,58.7,91,75,60,28.92,28.81,8,3,8,0.00
2013-9-14,73.1,67.4,63.7,57.9,55.9,54.9,77,67,59,28.85,28.82,2,1,2,0.00
2013-9-15,94.0,84.7,72.5,69.8,66.5,58.8,67,55,40,28.89,28.82,9,2,9,0.00
2013-9-16,84.1,74.5,69.3,68.8,67.1,65.3,90,78,60,29.01,28.88,8,2,8,0.10
2013-9-17,88.6,76.1,69.8,71.5,68.1,66.2,92,78,52,28.96,28.81,6,1,6,0.15
2013-9-18,91.8,84.4,79.0,66.3,63.4,61.7,65,50,40,28.77,28.73,10,3,10,0.00
2013-9-19,88.0,76.7,71.6,71.5,67.2,63.3,85,73,56,28.83,28.74,10,3,10,0.45
2013-9-20,71.6,67.5,61.4,67.2,61.7,54.1,92,82,61,28.87,28.77,6,2,6,0.01
2013-9-21,78.8,71.7,59.2,54.3,52.5,48.7,74,53,35,28.83,28.78,7,1,7,0.00
2013-9-22,80.3,70.9,56.3,54.2,50.7,47.9,81,51,33,28.82,28.67,4,1,4,0.00
2013-9-23,81.9,69.9,55.8,56.1,52.8,49.5,81,56,38,28.72,28.61,8,3,8,0.01
2013-9-24,84.6,71.3,57.2,54.2,50.1,42.5,78,52,24,28.84,28.72,8,2,8,0.00
2013-9-25,88.7,82.3,74.0,58.7,54.0,51.0,48,38,28,28.77,28.63,5,1,5,0.00
2013-9-26,91.4,78.1,65.7,62.9,56.4,50.8,60,48,36,28.71,28.63,11,4,11,0.00
2013-9-27,86.6,75.4,64.4,67.5,61.6,55.5,79,63,50,28.78,28.67,6,3,6,0.00
2013-9-28,74.9,62.8,57.8,70.5,57.2,53.6,92,83,59,28.89,28.74,7,5,7,1.17
2013-9-29,74.5,67.0,56.9,53.9,49.6,47.5,75,55,39,28.96,28.80,3,1,3,0.00
2013-9-30,73.4,62.3,54.9,56.7,50.9,48.0,78,67,52,28.80,28.67,5,1,5,0.00
2013-10-1,86.6,73.2,60.7,66.8,59.7,51.6,85,64,49,28.79,28.69,7,3,7,0.00
2013-10-2,84.1,74.8,67.7,70.6,67.2,59.9,92,78,61,28.83,28.70,9,3,9,0.00
2013-10-3,88.2,80.1,70.0,71.6,68.1,65.7,89,68,48,28.74,28.60,14,6,14,0.00
2013-10-4,84.4,78.3,67.5,69.8,67.4,62.8,85,70,59,28.77,28.62,12,6,12,0.16
2013-10-5,66.8,61.1,49.5,63.4,44.9,39.1,89,58,43,28.93,28.77,7,3,7,0.91
2013-10-6,68.0,51.9,43.9,41.5,37.8,32.2,79,62,29,28.97,28.90,8,2,8,0.00
2013-10-7,74.2,66.0,58.3,45.8,42.5,35.7,59,44,25,29.03,28.94,3,1,3,0.00
2013-10-8,77.0,69.5,52.6,49.7,46.2,41.5,66,45,33,28.93,28.83,4,2,4,0.00
2013-10-9,79.9,67.2,54.7,55.1,51.8,48.7,81,60,39,28.90,28.80,9,4,9,0.00
2013-10-10,80.1,79.5,79.2,62.1,61.2,60.3,56,54,51,28.78,28.75,6,4,6,0.00
2013-10-11,76.7,73.6,72.0,59.3,55.7,53.6,64,54,45,28.68,28.65,2,0,2,0.00
2013-10-12,73.6,69.1,59.2,54.0,51.9,48.7,68,55,48,28.93,28.89,9,5,9,0.00
2013-10-13,70.9,68.5,67.1,64.4,63.0,57.7,91,83,69,29.09,29.01,4,1,4,0.00
2013-10-14,69.7,66.4,64.1,67.9,63.9,61.7,94,92,88,28.99,28.73,6,3,6,0.70
2013-10-15,69.8,55.7,50.8,68.1,48.1,42.9,94,76,63,28.96,28.74,8,3,8,0.41
2013-10-16,55.8,49.3,42.3,42.9,40.4,38.1,85,72,58,29.02,28.92,8,2,8,0.00
2013-10-17,68.2,58.3,41.9,46.4,43.5,38.0,86,61,40,28.93,28.82,1,0,1,0.00
2013-10-18,55.3,51.6,47.7,48.0,45.0,42.7,87,78,66,28.88,28.84,7,2,7,0.05
2013-10-20,70.0,62.2,54.7,49.3,45.6,43.3,68,55,45,28.79,28.65,9,4,9,0.00
2013-10-21,61.9,54.8,42.8,46.6,40.9,36.7,87,61,42,28.97,28.76,13,5,13,0.35
2013-10-22,73.4,55.1,42.1,48.2,41.9,36.4,84,65,37,28.97,28.87,8,2,8,0.00
2013-10-23,57.8,57.8,57.8,49.5,49.5,49.5,74,74,74,28.90,28.90,5,5,5,0.00
2013-10-24,58.0,50.0,45.7,41.3,37.9,35.7,80,64,49,29.20,29.08,4,1,4,0.00
2013-10-25,61.4,45.3,40.5,42.6,34.6,31.7,71,67,50,29.25,29.14,6,2,6,0.00
2013-10-27,69.3,64.8,56.5,49.3,43.9,39.5,71,48,34,28.97,28.82,6,2,6,0.00
2013-10-28,64.6,64.3,63.9,61.4,61.1,60.7,89,89,89,28.88,28.85,5,4,5,0.00
2013-10-29,75.2,72.8,70.0,68.0,67.0,66.2,88,82,78,28.81,28.77,13,5,13,0.00
2013-10-30,74.5,71.5,67.9,69.4,67.3,65.1,91,87,84,28.70,28.62,11,5,11,0.00
2013-10-31,65.3,56.3,49.0,48.3,44.0,41.3,76,64,45,28.70,28.60,6,2,6,0.00
2013-11-1,67.7,59.1,43.2,48.0,42.1,39.2,88,56,40,28.91,28.69,7,2,7,0.00
2013-11-2,55.3,49.7,47.0,38.8,35.4,32.6,61,58,54,29.16,29.01,5,2,5,0.00
2013-11-3,59.6,52.5,43.6,42.4,37.2,32.0,71,56,46,29.01,28.77,15,6,15,0.00
2013-11-4,61.4,58.5,58.0,54.0,53.6,53.0,86,84,74,28.89,28.83,5,4,5,0.00
2013-11-5,64.4,61.3,58.9,62.1,59.3,56.5,93,93,92,28.85,28.74,8,4,8,0.07
2013-11-6,52.0,44.8,35.5,39.4,35.8,31.2,85,72,55,29.21,29.11,8,2,8,0.00
2013-11-7,52.2,37.0,32.9,41.1,32.3,29.4,88,84,66,29.30,29.20,6,1,6,0.02
2013-11-8,66.2,58.4,43.0,40.6,36.0,33.3,73,45,30,29.10,28.87,16,9,16,0.00
2013-11-9,67.0,58.6,52.7,47.6,46.4,44.6,79,65,47,29.07,28.94,4,1,4,0.00
2013-11-10,64.6,55.7,52.2,53.2,48.7,46.5,82,78,65,29.19,29.07,4,1,4,0.00
2013-11-11,71.3,61.5,43.0,58.1,53.2,38.8,89,75,63,29.26,29.00,9,3,9,0.00
2013-11-12,40.0,35.6,28.6,33.9,18.9,11.1,79,53,31,29.58,29.32,10,6,10,0.00
2013-11-14,56.3,51.9,45.4,34.3,31.4,30.2,65,46,38,28.95,28.82,11,8,11,0.00
2013-11-15,65.0,63.8,60.8,47.2,46.7,46.2,59,54,52,28.76,28.63,8,6,8,0.00
2013-11-16,74.7,67.9,58.7,58.1,56.7,54.5,86,68,54,28.55,28.41,15,9,15,0.01
2013-11-18,64.3,57.5,50.6,34.0,32.3,29.2,53,39,27,29.09,29.02,5,2,5,0.00
2013-11-19,60.3,53.5,50.6,37.1,33.8,28.3,59,48,33,29.02,28.80,10,4,10,0.00
2013-11-20,57.2,55.7,54.0,48.0,44.9,42.0,73,67,63,28.76,28.70,10,4,10,0.00
2013-11-22,28.8,27.9,27.0,25.2,23.8,21.0,89,85,75,29.38,29.31,12,5,12,0.00
2013-11-23,33.5,30.3,29.0,24.8,23.6,20.3,84,76,58,29.47,29.36,8,5,8,0.00
2013-11-25,33.7,32.0,29.0,28.7,27.8,25.9,88,84,81,29.08,29.02,5,1,5,0.04
2013-11-26,45.0,42.4,37.4,30.5,27.5,25.6,69,56,48,29.17,29.09,19,7,19,0.08
2013-11-27,41.6,35.1,30.2,18.2,14.9,13.1,51,44,35,29.29,29.17,6,2,6,0.00
2013-11-28,56.7,49.3,40.0,33.6,30.2,26.7,60,48,40,29.22,29.13,10,4,10,0.07
2013-11-29,57.4,52.9,46.8,33.3,31.9,30.5,53,45,39,29.12,29.10,7,4,7,0.00
2013-11-30,59.8,53.7,48.6,46.4,43.9,41.7,77,69,61,28.96,28.94,4,1,4,0.00
2013-12-1,52.2,52.2,52.2,48.1,48.1,48.1,86,86,86,28.91,28.91,0,0,0,0.00
2013-12-2,49.0,48.3,47.2,44.9,44.1,42.3,87,85,83,28.53,28.51,3,2,3,0.00
2013-12-3,64.1,49.9,41.4,49.1,43.7,39.2,94,81,53,28.50,28.35,6,2,6,0.00
2013-12-4,42.8,39.6,29.0,31.9,28.6,18.6,69,65,61,28.89,28.62,8,4,8,0.00
2013-12-5,29.0,22.7,18.4,17.9,13.2,10.4,84,68,53,29.09,28.90,12,7,12,0.00
2013-12-6,23.4,18.9,16.2,14.6,12.9,10.2,88,78,58,29.24,29.07,8,5,8,0.00
2013-12-7,19.8,19.6,19.3,11.3,11.1,10.6,70,69,69,29.17,29.12,5,3,5,0.00
2013-12-8,28.1,25.8,20.3,22.2,20.6,17.0,87,81,76,28.92,28.82,8,5,8,0.00
2013-12-9,25.6,22.3,14.0,21.7,16.4,9.5,88,78,68,29.24,29.01,9,3,9,0.00
2013-12-10,38.5,22.8,8.5,23.7,14.1,4.2,84,70,52,29.26,29.07,8,2,8,0.00
2013-12-11,37.6,29.9,22.9,22.5,20.1,17.0,78,67,54,29.42,29.36,5,1,5,0.00
2013-12-12,40.0,37.4,32.2,27.6,26.5,24.2,72,65,61,29.35,29.14,8,4,8,0.03
2013-12-13,51.1,44.2,38.2,40.2,38.0,32.9,90,79,66,28.86,28.60,14,4,14,0.10
2013-12-14,40.5,34.2,29.2,38.2,29.2,23.5,93,82,62,29.07,28.68,10,5,10,0.00
2013-12-15,59.0,53.9,47.2,32.9,30.3,29.2,54,41,32,29.09,28.99,8,5,8,0.00
2013-12-16,58.0,49.8,41.4,32.9,31.6,29.3,62,50,37,29.01,28.95,4,2,4,0.00
2013-12-17,61.7,44.9,32.9,33.2,28.3,25.8,78,55,28,29.14,29.01,6,1,6,0.00
2013-12-18,67.3,53.8,40.5,46.2,35.4,27.8,69,51,34,29.10,28.72,11,6,11,0.00
2013-12-19,67.3,58.6,52.6,52.9,50.0,45.9,84,73,59,28.71,28.50,17,9,17,0.00
2013-12-20,57.4,33.4,27.0,52.3,27.7,19.1,91,80,68,28.82,28.54,10,4,10,0.14
2013-12-21,31.0,29.8,28.8,29.0,27.6,26.3,92,91,89,28.68,28.41,0,0,0,0.00
2013-12-22,29.2,26.5,24.1,26.0,23.2,21.1,89,87,84,29.03,28.67,0,0,0,0.00
2013-12-23,27.0,25.8,24.5,23.6,22.7,21.4,89,88,86,29.39,29.35,0,0,0,0.00
2013-12-24,40.1,32.2,24.8,35.4,28.9,22.6,91,88,83,29.25,28.99,5,1,5,0.00
2013-12-26,41.9,40.2,38.9,29.5,29.1,28.6,69,64,59,29.18,29.14,6,3,6,0.00
2013-12-27,59.2,44.3,31.1,34.7,29.4,24.5,76,59,34,29.22,29.15,7,2,7,0.00
2013-12-28,59.2,51.1,37.4,39.9,35.8,30.2,82,58,43,29.00,28.76,10,6,10,0.00
2013-12-29,42.7,31.4,23.6,39.6,25.6,15.0,91,79,66,29.11,28.77,8,5,8,0.00
2013-12-30,38.9,24.7,14.6,18.6,12.9,7.7,76,62,42,29.20,29.06,5,1,5,0.00
2013-12-31,53.6,39.7,23.9,30.5,24.5,17.0,77,57,36,29.20,28.95,14,4,14,0.00
2014-1-1,52.2,36.8,20.2,35.7,26.9,14.7,79,68,53,29.11,28.73,13,6,13,0.00
2014-1-2,36.7,25.4,14.9,22.2,15.9,9.0,80,68,54,29.32,29.14,13,3,13,0.00